Regional Weather Roundup
Issued by NWS

Home | Current Version | Previous Version | Text Only | Print | Product List | Glossary Off
Versions: 1 2 3 4 5 6 7 8 9 10 11 12 13 14 15 16 17 18 19 20 21 22 23 24 25 26 27 28 29 30 31 32 33 34 35 36 37 38 39 40 41 42 43 44 45 46 47 48 49 50

000
ASUS45 KBOU 281907
RWRCO

WEATHER ROUNDUP FOR COLORADO
NATIONAL WEATHER SERVICE DENVER/BOULDER CO
100 PM MDT MON JUL 28 2014

NOTE: "FAIR" INDICATES FEW OR NO CLOUDS BELOW 12000 FEET WITH NO
SIGNIFICANT WEATHER AND/OR OBSTRUCTIONS TO VISIBILITY.

COZ001>005-013-030-031-282000-
...NORTHWEST COLORADO...

CITY           SKY/WX    TMP DP  RH WIND       PRES   REMARKS
CRAIG          SUNNY     77  47  34 VRB5      30.34F
HAYDEN         MOSUNNY   81  45  28 NW9       30.36F
MEEKER         MOSUNNY   84  46  26 SE8       30.34F
MOUNT WERNER   NOT AVBL
STEAMBOAT SPGS MOSUNNY   80  47  30 SW7       30.38F
WALDEN         SUNNY     75  32  20 NW6       30.48F
$$

COZ006>008-011-282000-
...WEST CENTRAL VALLEYS...

CITY           SKY/WX    TMP DP  RH WIND       PRES   REMARKS
GRAND JUNCTION PTSUNNY   82  54  37 NW8       30.28F
MONTROSE       PTSUNNY   85  50  29 VRB7      30.35F
EAGLE          PTSUNNY   81  45  28 CALM      30.37F
RIFLE          PTSUNNY   82  50  32 W9        30.30F
DELTA          PTSUNNY   88  47  24 S6        30.30F
NUCLA          PTSUNNY   77  46  33 NW6       30.43F
$$

COZ017>023-064>068-282000-
...SOUTHWEST COLORADO...

CITY           SKY/WX    TMP DP  RH WIND       PRES   REMARKS
DURANGO        MOSUNNY   76  52  43 VRB7      30.43F
CORTEZ         SUNNY     79  53  40 CALM      30.39F
PAGOSA SPRINGS MOSUNNY   73  44  36 SW6       30.51F
TELLURIDE      NOT AVBL
WOLF CREEK PAS NOT AVBL
$$

COZ009-010-012-014-032>034-037-058>063-282000-
...CENTRAL COLORADO...

CITY           SKY/WX    TMP DP  RH WIND       PRES   REMARKS
ASPEN          CLOUDY    77  46  33 N12       30.44F
BUENA VISTA    CLOUDY    74  49  39 SE8       30.47F
COPPER MTN     PTSUNNY   64  37  36 W13       30.79F THUNDER
BERTHOUD PASS  FAIR      54  39  58 MISG      30.85F
COTTONWOOD PAS CLOUDY    68  46  45 E8        30.62F THUNDER
GUNNISON       PTSUNNY   72  48  43 N8        30.49F
KREMMLING      MOSUNNY   81  41  24 SW3       30.42F
LEADVILLE      CLOUDY    60  40  47 E13G22    30.60F
MONARCH PASS   CLOUDY    52  43  71 SW7       30.90S
SALIDA         CLOUDY    79  51  37 SW9G17    30.51F
SUNLIGHT       CLOUDY    63  52  67 W3        30.72F
WILKERSON PASS NOT AVBL
$$

COZ069>075-282000-
...SAN LUIS VALLEY/SANGRE DE CRISTO MOUNTAINS...

CITY           SKY/WX    TMP DP  RH WIND       PRES   REMARKS
ALAMOSA        CLOUDY    69  54  58 E6        30.49F
LA VETA PASS   CLOUDY    63  48  59 SW9G17    30.67F
SAGUACHE       CLOUDY    68  52  56 S8        30.52F
$$

COZ035-036-038>040-282000-
...NORTHERN COLORADO FRONT RANGE...

CITY           SKY/WX    TMP DP  RH WIND       PRES   REMARKS
DENVER INTL AP PTSUNNY   82  55  39 VRB5      30.32F
DMNS CITY PARK   N/A     83  56  39 SW5       30.31F
AURORA         PTSUNNY   80  58  46 VRB3      30.34F
FRONT RANGE AP NOT AVBL
ERIE MUNI ARPT MOSUNNY   81  56  41 NE3       30.31F
BOULDER MUN AP MOSUNNY   81  57  44 NE3       30.32F
CENTENNIAL     PTSUNNY   81  55  40 VRB5      30.35F
BROOMFIELD     PTSUNNY   81  57  44 N6        30.36F
FORT COLLINS   SUNNY     84  57  39 E8        30.30F
LONGMONT       SUNNY     86  56  35 CALM      30.32F
$$

COZ041-046-047-076>085-087-088-282000-
...PIKES PEAK/PALMER DIVIDE AND SOUTHERN FOOTHILLS...

CITY           SKY/WX    TMP DP  RH WIND       PRES   REMARKS
COLO. SPRINGS  CLOUDY    67  60  78 SE12      30.43F
A. F. ACADEMY  PTSUNNY   68  57  68 S10       30.43F
ELLICOTT       CLOUDY    70  59  68 S14       30.42S
FALCON         CLOUDY    66  58  74 SE9       30.47F
FORT CARSON    CLOUDY    68  62  79 SE6       30.40F
LIMON          CLOUDY    75  57  53 S17G25    30.37F
MONUMENT HILL  MOSUNNY   70  57  64 S20       30.45S
TRINIDAD       PTSUNNY   75  56  51 E7        30.37F
$$

COZ042>045-048>051-090-091-282000-
...NORTHEAST COLORADO...

CITY           SKY/WX    TMP DP  RH WIND       PRES   REMARKS
GREELEY ARPT   SUNNY     84  59  42 E8        30.30F
AKRON          CLOUDY    83  54  36 SE14      30.31F
BURLINGTON     PTSUNNY   78  55  44 S16G23    30.34F
WRAY             N/A     87  54  31 S10G17    30.28F
STERLING       PTSUNNY   90  59  35 S7        30.26F
HOLYOKE        MOSUNNY   86  57  37 SE14G30   30.28F
FORT MORGAN    PTSUNNY   88  53  30 SE8       30.29F
$$

COZ086-089-092>099-282000-
...SOUTHEAST COLORADO...

CITY           SKY/WX    TMP DP  RH WIND       PRES   REMARKS
PUEBLO         MOSUNNY   76  63  64 SE9       30.32F
LA JUNTA       MOSUNNY   79  63  57 SE15G23   30.30F
LAMAR          MOSUNNY   80  60  50 S18G25    30.29F
SPRINGFIELD      N/A     67  60  78 S15       30.38F
$$



USA.gov is the U.S. government's official web portal to all federal, state and local government web resources and services.